Orbital Elements at Epoch 2459000.5 (2020-May-31.0) TDB
Reference: JPL 12 (heliocentric ecliptic J2000)
Element | Value | Uncertainty (1-sigma) | Units |
e | .1199083510637596 | 8.9683e-08 | |
a | 3.04306358682797 | 8.4742e-08 | au |
q | 2.678174849949258 | 3.2921e-07 | au |
i | 8.131289661854229 | 1.1057e-05 | deg |
node | 314.8372825048279 | 3.5675e-05 | deg |
peri | 98.11803716342649 | 9.4652e-05 | deg |
M | 257.5551795036614 | 9.7753e-05 | deg |
tp | 2459552.262871180160 (2021-Dec-03.76287118) | 0.00054635 | TDB |
period | 1938.942668477388 5.31 | 8.0992e-05 2.217e-07 | d yr |
n | .1856682024965187 | 7.7556e-09 | deg/d |
Q | 3.407952323706682 | 9.4903e-08 | au |
|
| | Orbit Determination Parameters
Additional Information
|